GW4676 Weather Reports


Display with metric or nautical units.
time (UTC)temp
F
wind
direction
speed
MPH
gust
MPH
rain 1hr
in
rain 24hr
in
rain mn
in
humidity
%
barometer
mb
20260504044539 46 227 4.0 7.0 0.00 0.11 0.00 55 1012.2
20260504043038 47 243 5.0 8.0 0.00 0.11 0.00 55 1012.1
20260504041547 47 240 4.0 7.0 0.00 0.11 0.00 54 1012.2
20260504040045 48 207 5.0 7.0 0.00 0.11 0.00 53 1012.2
20260504034542 48 218 4.0 8.0 0.00 0.11 0.11 52 1012.2
20260504033040 48 218 5.0 9.0 0.01 0.11 0.11 51 1012.2
20260504031556 49 215 5.0 10.0 0.01 0.11 0.11 51 1012.2
20260504030042 49 215 7.0 10.0 0.01 0.11 0.11 51 1012.3
20260504024540 49 250 6.0 9.0 0.01 0.11 0.11 50 1012.3
20260504023042 49 228 6.0 11.0 0.00 0.10 0.10 49 1012.3
20260504021540 50 213 6.0 12.0 0.00 0.10 0.10 49 1012.4
20260504020038 50 228 5.0 9.0 0.00 0.10 0.10 48 1012.4
20260504014555 50 261 5.0 11.0 0.00 0.11 0.10 48 1012.3
20260504013047 50 248 5.0 10.0 0.00 0.11 0.10 47 1012.2
20260504011542 51 219 5.0 12.0 0.00 0.11 0.10 47 1012.0
20260504010041 51 230 6.0 11.0 0.00 0.11 0.10 45 1012.1
20260504004548 52 234 8.0 12.0 0.01 0.11 0.10 44 1012.0
20260504003046 52 223 6.0 11.0 0.01 0.11 0.10 44 1011.9
20260504001558 52 216 6.0 11.0 0.01 0.11 0.10 44 1012.0
20260504000048 53 245 4.0 10.0 0.01 0.11 0.10 43 1012.0
20260503234541 54 267 5.0 12.0 0.00 0.11 0.09 42 1011.9
20260503233045 54 244 8.0 13.0 0.00 0.11 0.09 40 1011.9
20260503231543 55 208 7.0 13.0 0.00 0.11 0.09 40 1012.0
20260503230043 55 209 8.0 19.0 0.00 0.11 0.09 40 1011.9
20260503224545 55 228 8.0 18.0 0.00 0.12 0.09 39 1011.9
20260503223042 55 235 10.0 18.0 0.01 0.12 0.09 38 1011.9
20260503221549 55 204 5.0 11.0 0.01 0.12 0.09 39 1011.9
20260503220040 56 252 10.0 19.0 0.01 0.12 0.09 38 1011.9
20260503214544 56 275 5.0 15.0 0.01 0.12 0.09 39 1012.0
20260503213043 56 209 6.0 13.0 0.00 0.11 0.08 39 1011.9
20260503211542 55 215 10.0 17.0 0.00 0.11 0.08 38 1011.9
20260503210050 54 249 8.0 16.0 0.00 0.11 0.08 40 1011.9
20260503204550 55 228 6.0 15.0 0.00 0.12 0.08 40 1012.1
20260503203038 54 290 8.0 17.0 0.01 0.12 0.08 40 1012.0
20260503201546 55 306 6.0 17.0 0.01 0.12 0.08 38 1012.1
20260503200046 55 297 8.0 15.0 0.01 0.12 0.08 39 1012.3
20260503194605 54 300 3.0 15.0 0.01 0.12 0.08 44 1012.7
20260503193039 54 275 6.0 15.0 0.00 0.11 0.07 42 1012.9
20260503191546 54 283 4.0 15.0 0.00 0.11 0.07 42 1013.1
20260503190052 54 246 8.0 14.0 0.00 0.11 0.07 42 1013.3
20260503184544 54 290 9.0 18.0 0.01 0.12 0.07 42 1013.3
20260503183059 54 274 7.0 12.0 0.01 0.12 0.07 40 1013.6
20260503181547 53 213 8.0 16.0 0.01 0.12 0.07 41 1013.7
20260503180058 53 227 6.0 18.0 0.01 0.12 0.07 44 1013.8
20260503174544 52 207 10.0 19.0 0.00 0.12 0.06 42 1013.8
20260503173108 52 273 7.0 18.0 0.00 0.12 0.06 46 1014.0
20260503171549 51 286 8.0 19.0 0.00 0.12 0.06 44 1014.2
20260503081551 32 272 2.0 4.0 0.00 0.13 0.02 82 1014.2
20260503071546 33 272 3.0 6.0 0.01 0.13 0.02 79 1014.0